Location: Memphis
(29.8667°N, 31.2500°E)
Time: 09:15:17
(UTC+00:00)

Cosmos 1500 - Pass Details

Date: 03 March 2021
Orbit: 499 x 517 km, 82.5° (Epoch: 15 April)

Event Time Altitude Azimuth Distance (km) Brightness Sun altitude
Rises 17:08:03 0° 197° (SSW) 2,578 7.0 -16.5°
Reaches altitude 10° 17:10:13 10° 204° (SSW) 1,697 6.1 -17.0°
Maximum altitude 17:13:46 44° 278° (W) 693 4.3 -17.7°
Drops below altitude 10° 17:17:22 10° 352° (N) 1,704 6.0 -18.5°
Sets 17:19:33 0° 358° (N) 2,591 6.8 -19.0°
